• în Republica Moldova
  • Lista ţărilor
  • Pe 7 zile
  • Temperatura apei
  • Hartă satelitară
  • Meteo pe hartă
  • Widget-uri
  • user-avatar
    Intrare

    Meteo pe oră la Nachiczewan

    Astăzi, 21 Iulie, Vineri

    Timp Temperatura Precipitaţii Vânt Presiune Umiditate
    00:00 +29°C° 0 mm 2 m/s 685 mmHg 33%
    01:00 +29°C° 0 mm 2 m/s 685 mmHg 33%
    02:00 +28°C° 0 mm 2 m/s 685 mmHg 34%
    03:00 +29°C° 0 mm 2 m/s 684 mmHg 35%
    04:00 +29°C° 0 mm 2 m/s 684 mmHg 34%
    05:00 +29°C° 0 mm 2 m/s 685 mmHg 33%
    06:00 +29°C° 0 mm 2 m/s 685 mmHg 32%
    07:00 +31°C° 0 mm 2 m/s 685 mmHg 29%
    08:00 +34°C° 0 mm 2 m/s 686 mmHg 25%
    09:00 +35°C° 0 mm 2 m/s 686 mmHg 21%
    10:00 +37°C° 0 mm 2 m/s 686 mmHg 19%
    11:00 +38°C° 0 mm 3 m/s 686 mmHg 17%
    12:00 +39°C° 0 mm 3 m/s 686 mmHg 15%
    13:00 +40°C° 0 mm 3 m/s 686 mmHg 14%
    14:00 +42°C° 0 mm 4 m/s 685 mmHg 13%
    15:00 +43°C° 0 mm 4 m/s 685 mmHg 12%
    16:00 +42°C° 0 mm 5 m/s 685 mmHg 12%
    17:00 +41°C° 0 mm 5 m/s 685 mmHg 13%
    18:00 +41°C° 0 mm 5 m/s 685 mmHg 14%
    19:00 +39°C° 0 mm 5 m/s 685 mmHg 17%
    20:00 +35°C° 0 mm 4 m/s 685 mmHg 20%
    21:00 +33°C° 0 mm 3 m/s 686 mmHg 23%
    22:00 +31°C° 0 mm 3 m/s 686 mmHg 24%
    23:00 +30°C° 0 mm 2 m/s 686 mmHg 25%

    Mâine, 22 Iulie, Sâmbătă

    Timp Temperatura Precipitaţii Vânt Presiune Umiditate
    00:00 +30°C° 0 mm 2 m/s 686 mmHg 27%
    01:00 +29°C° 0 mm 2 m/s 686 mmHg 27%
    02:00 +28°C° 0 mm 2 m/s 686 mmHg 28%
    03:00 +28°C° 0 mm 2 m/s 686 mmHg 28%
    04:00 +28°C° 0 mm 2 m/s 686 mmHg 28%
    05:00 +28°C° 0 mm 2 m/s 687 mmHg 27%
    06:00 +29°C° 0 mm 2 m/s 687 mmHg 27%
    07:00 +30°C° 0 mm 2 m/s 687 mmHg 24%
    08:00 +32°C° 0 mm 1 m/s 687 mmHg 21%
    09:00 +34°C° 0 mm 1 m/s 688 mmHg 18%
    10:00 +36°C° 0 mm 2 m/s 687 mmHg 16%
    11:00 +38°C° 0 mm 2 m/s 687 mmHg 15%
    12:00 +39°C° 0 mm 3 m/s 687 mmHg 13%
    13:00 +40°C° 0 mm 3 m/s 687 mmHg 12%
    14:00 +42°C° 0 mm 4 m/s 687 mmHg 12%
    15:00 +43°C° 0 mm 4 m/s 686 mmHg 11%
    16:00 +42°C° 0 mm 4 m/s 686 mmHg 12%
    17:00 +41°C° 0 mm 5 m/s 686 mmHg 12%
    18:00 +41°C° 0 mm 5 m/s 685 mmHg 13%
    19:00 +38°C° 0 mm 4 m/s 686 mmHg 17%
    20:00 +36°C° 0 mm 3 m/s 686 mmHg 20%
    21:00 +33°C° 0 mm 3 m/s 686 mmHg 23%
    22:00 +32°C° 0 mm 2 m/s 686 mmHg 25%
    23:00 +31°C° 0 mm 2 m/s 686 mmHg 27%

    Poimâine, 23 Iulie, Duminică

    Timp Temperatura Precipitaţii Vânt Presiune Umiditate
    00:00 +30°C° 0 mm 2 m/s 686 mmHg 28%
    01:00 +29°C° 0 mm 2 m/s 685 mmHg 29%
    02:00 +29°C° 0 mm 2 m/s 685 mmHg 30%
    03:00 +28°C° 0 mm 1 m/s 685 mmHg 30%
    04:00 +29°C° 0 mm 1 m/s 685 mmHg 30%
    05:00 +29°C° 0 mm 1 m/s 685 mmHg 30%
    06:00 +29°C° 0 mm 1 m/s 685 mmHg 29%
    07:00 +31°C° 0 mm 1 m/s 685 mmHg 26%
    08:00 +33°C° 0 mm 1 m/s 685 mmHg 22%
    09:00 +35°C° 0 mm 1 m/s 685 mmHg 18%
    10:00 +37°C° 0 mm 2 m/s 685 mmHg 17%
    11:00 +39°C° 0 mm 2 m/s 685 mmHg 15%
    12:00 +40°C° 0 mm 3 m/s 685 mmHg 13%
    13:00 +42°C° 0 mm 3 m/s 684 mmHg 12%
    14:00 +43°C° 0 mm 4 m/s 684 mmHg 11%
    15:00 +44°C° 0 mm 4 m/s 683 mmHg 11%
    16:00 +43°C° 0 mm 5 m/s 683 mmHg 11%
    17:00 +43°C° 0 mm 5 m/s 683 mmHg 12%
    18:00 +42°C° 0 mm 5 m/s 683 mmHg 13%
    19:00 +40°C° 0 mm 4 m/s 683 mmHg 17%
    20:00 +37°C° 0 mm 4 m/s 683 mmHg 20%
    21:00 +35°C° 0 mm 4 m/s 684 mmHg 24%
    22:00 +34°C° 0 mm 3 m/s 684 mmHg 26%
    23:00 +31°C° 0 mm 3 m/s 684 mmHg 28%

    24 Iulie, Luni

    Timp Temperatura Precipitaţii Vânt Presiune Umiditate
    00:00 +30°C° 0 mm 3 m/s 684 mmHg 30%
    01:00 +30°C° 0 mm 3 m/s 684 mmHg 31%
    02:00 +29°C° 0 mm 2 m/s 684 mmHg 33%
    03:00 +28°C° 0 mm 2 m/s 684 mmHg 34%
    04:00 +28°C° 0 mm 2 m/s 684 mmHg 34%
    05:00 +28°C° 0 mm 2 m/s 684 mmHg 34%
    06:00 +29°C° 0 mm 2 m/s 684 mmHg 34%
    07:00 +30°C° 0 mm 2 m/s 685 mmHg 30%
    08:00 +32°C° 0 mm 2 m/s 685 mmHg 26%
    09:00 +34°C° 0 mm 2 m/s 685 mmHg 23%
    10:00 +36°C° 0 mm 2 m/s 685 mmHg 20%
    11:00 +37°C° 0 mm 2 m/s 684 mmHg 18%
    12:00 +38°C° 0 mm 3 m/s 684 mmHg 16%
    13:00 +39°C° 0 mm 3 m/s 684 mmHg 15%
    14:00 +40°C° 0 mm 3 m/s 684 mmHg 14%
    15:00 +42°C° 0 mm 4 m/s 683 mmHg 13%
    16:00 +41°C° 0 mm 4 m/s 683 mmHg 14%
    17:00 +41°C° 0 mm 4 m/s 683 mmHg 15%
    18:00 +40°C° 0 mm 5 m/s 683 mmHg 16%
    19:00 +37°C° 0 mm 4 m/s 683 mmHg 21%
    20:00 +35°C° 0 mm 4 m/s 684 mmHg 25%
    21:00 +33°C° 0 mm 3 m/s 684 mmHg 30%
    22:00 +31°C° 0 mm 3 m/s 684 mmHg 32%
    23:00 +30°C° 0 mm 2 m/s 684 mmHg 34%

    25 Iulie, Marţi

    Timp Temperatura Precipitaţii Vânt Presiune Umiditate
    00:00 +29°C° 0 mm 2 m/s 684 mmHg 36%
    01:00 +29°C° 0 mm 2 m/s 684 mmHg 37%
    02:00 +28°C° 0 mm 2 m/s 684 mmHg 37%
    03:00 +28°C° 0 mm 1 m/s 684 mmHg 38%
    04:00 +28°C° 0 mm 1 m/s 684 mmHg 37%
    05:00 +28°C° 0 mm 1 m/s 684 mmHg 37%
    06:00 +28°C° 0 mm 1 m/s 684 mmHg 36%
    07:00 +30°C° 0 mm 1 m/s 684 mmHg 32%
    08:00 +32°C° 0 mm 2 m/s 684 mmHg 27%
    09:00 +35°C° 0 mm 2 m/s 684 mmHg 23%
    10:00 +36°C° 0 mm 2 m/s 684 mmHg 21%
    11:00 +37°C° 0 mm 2 m/s 684 mmHg 18%
    12:00 +39°C° 0 mm 3 m/s 684 mmHg 15%
    13:00 +40°C° 0 mm 3 m/s 683 mmHg 13%
    14:00 +40°C° 0 mm 3 m/s 683 mmHg 12%
    15:00 +42°C° 0 mm 4 m/s 683 mmHg 10%
    16:00 +42°C° 0 mm 4 m/s 683 mmHg 11%
    17:00 +41°C° 0 mm 4 m/s 683 mmHg 12%
    18:00 +41°C° 0 mm 4 m/s 683 mmHg 12%
    19:00 +38°C° 0 mm 3 m/s 683 mmHg 16%
    20:00 +35°C° 0 mm 3 m/s 683 mmHg 20%
    21:00 +32°C° 0 mm 2 m/s 684 mmHg 25%
    22:00 +31°C° 0 mm 2 m/s 684 mmHg 26%
    23:00 +31°C° 0 mm 2 m/s 684 mmHg 28%

    26 Iulie, Miercuri

    Timp Temperatura Precipitaţii Vânt Presiune Umiditate
    00:00 +30°C° 0 mm 2 m/s 684 mmHg 30%
    01:00 +29°C° 0 mm 2 m/s 684 mmHg 30%
    02:00 +29°C° 0 mm 2 m/s 684 mmHg 31%
    03:00 +28°C° 0 mm 2 m/s 684 mmHg 31%
    04:00 +28°C° 0 mm 2 m/s 684 mmHg 30%
    05:00 +29°C° 0 mm 1 m/s 684 mmHg 30%
    06:00 +29°C° 0 mm 1 m/s 684 mmHg 29%
    07:00 +30°C° 0 mm 1 m/s 685 mmHg 25%
    08:00 +32°C° 0 mm 1 m/s 685 mmHg 22%
    09:00 +34°C° 0 mm 1 m/s 685 mmHg 18%
    10:00 +36°C° 0 mm 2 m/s 685 mmHg 16%
    11:00 +37°C° 0 mm 2 m/s 685 mmHg 15%
    12:00 +38°C° 0 mm 2 m/s 685 mmHg 13%
    13:00 +39°C° 0 mm 2 m/s 684 mmHg 12%
    14:00 +40°C° 0 mm 3 m/s 684 mmHg 11%
    15:00 +40°C° 0 mm 3 m/s 684 mmHg 10%
    16:00 +40°C° 0 mm 3 m/s 684 mmHg 11%
    17:00 +41°C° 0 mm 4 m/s 684 mmHg 11%
    18:00 +40°C° 0 mm 4 m/s 684 mmHg 11%
    19:00 +37°C° 0 mm 3 m/s 684 mmHg 15%
    20:00 +35°C° 0 mm 3 m/s 684 mmHg 18%
    21:00 +32°C° 0 mm 2 m/s 685 mmHg 22%
    22:00 +31°C° 0 mm 2 m/s 685 mmHg 24%
    23:00 +30°C° 0 mm 2 m/s 685 mmHg 27%
    Arată mai mult